MFX7541 UZTT-UDYZ

Flight info

Callsign MFX7541
Flight time N/A
Altitude 30000
Route DIBAD2A DIBAD N193 OGOLI T898 DARVA B476 TIMGA B476 METKA L88 RASAM N199 LUSAL M11 MATAL T916 SEVAN
Aircraft B763/H-SDE3FGHIM3RWXY/LB1

Departure

Time N/A
Airport Tashkent International Airport (UZTT)

Arrival

Time 2026-04-30 19:08
Airport Zvartnots International Airport (UDYZ)
Time Latitude Longitude Altitude Speed Heading
2026-04-30 17:39 40.99881 55.94908 33118 ft 439 kts 266°
2026-04-30 17:42 40.99230 55.54766 33130 ft 437 kts 267°
2026-04-30 17:43 40.98870 55.34764 33123 ft 436 kts 266°
2026-04-30 17:44 40.98393 55.10746 33138 ft 436 kts 266°
2026-04-30 17:47 40.97573 54.74881 33141 ft 434 kts 267°
2026-04-30 17:48 40.96845 54.47080 33140 ft 433 kts 267°
2026-04-30 17:50 40.95932 54.15364 33154 ft 431 kts 266°
2026-04-30 17:52 40.95193 53.91666 33158 ft 430 kts 266°
2026-04-30 17:54 40.94064 53.58137 33154 ft 429 kts 266°
2026-04-30 17:56 40.92915 53.26617 33177 ft 431 kts 266°
2026-04-30 17:57 40.92458 53.14717 34067 ft 429 kts 266°
2026-04-30 17:58 40.91986 53.02980 34168 ft 426 kts 266°
2026-04-30 18:00 40.90667 52.71829 34176 ft 427 kts 266°
2026-04-30 18:01 40.88754 52.52484 34173 ft 428 kts 259°
2026-04-30 18:02 40.85144 52.29483 34178 ft 426 kts 258°
2026-04-30 18:04 40.81467 52.06497 34196 ft 427 kts 258°
2026-04-30 18:06 40.76496 51.75908 34200 ft 427 kts 259°
2026-04-30 18:08 40.72322 51.49087 34200 ft 428 kts 268°
2026-04-30 18:10 40.71030 51.17836 34193 ft 428 kts 268°
2026-04-30 18:11 40.69856 50.90533 34204 ft 428 kts 268°
2026-04-30 18:13 40.68977 50.71018 34204 ft 429 kts 268°
2026-04-30 18:14 40.68062 50.51431 34197 ft 430 kts 268°
2026-04-30 18:15 40.66919 50.27934 34197 ft 431 kts 267°
2026-04-30 18:16 40.66130 50.12291 34192 ft 430 kts 267°
2026-04-30 18:17 40.65726 50.04431 34204 ft 432 kts 268°
2026-04-30 18:18 40.65109 49.92625 34181 ft 432 kts 267°
2026-04-30 18:18 40.64691 49.84759 34180 ft 432 kts 267°
2026-04-30 18:19 40.64267 49.76883 34184 ft 432 kts 267°
2026-04-30 18:19 40.63839 49.69037 34188 ft 432 kts 267°
2026-04-30 18:20 40.63405 49.61172 34186 ft 432 kts 267°
2026-04-30 18:20 40.63077 49.53307 34190 ft 432 kts 269°
2026-04-30 18:21 40.62736 49.45460 34188 ft 432 kts 268°
2026-04-30 18:21 40.62328 49.37584 34177 ft 432 kts 268°
2026-04-30 18:22 40.61891 49.29745 34187 ft 432 kts 267°
2026-04-30 18:22 40.61286 49.17951 34175 ft 432 kts 270°
2026-04-30 18:23 40.61157 49.10049 34179 ft 433 kts 270°
2026-04-30 18:23 40.61008 49.02135 34174 ft 433 kts 270°
2026-04-30 18:24 40.60773 48.90344 34170 ft 431 kts 270°
2026-04-30 18:25 40.60607 48.82465 34182 ft 432 kts 270°
2026-04-30 18:25 40.60350 48.70698 34172 ft 428 kts 270°
2026-04-30 18:26 40.60084 48.59008 34169 ft 429 kts 270°
2026-04-30 18:27 40.59805 48.47330 34182 ft 427 kts 270°
2026-04-30 18:28 40.59513 48.35595 34184 ft 428 kts 269°
2026-04-30 18:28 40.59211 48.23924 34195 ft 426 kts 269°
2026-04-30 18:29 40.58792 48.08459 34186 ft 425 kts 269°
2026-04-30 18:30 40.58494 47.92981 34187 ft 424 kts 274°
2026-04-30 18:31 40.58911 47.81412 34174 ft 425 kts 273°
2026-04-30 18:32 40.59290 47.69764 34165 ft 425 kts 273°
2026-04-30 18:33 40.59651 47.58179 34166 ft 425 kts 273°
2026-04-30 18:33 40.59998 47.46585 34164 ft 425 kts 273°
2026-04-30 18:34 40.60330 47.34930 34144 ft 425 kts 272°
2026-04-30 18:35 40.60499 47.27197 34153 ft 426 kts 272°
2026-04-30 18:35 40.60705 47.19427 34144 ft 426 kts 275°
2026-04-30 18:36 40.61827 47.07893 34149 ft 426 kts 277°
2026-04-30 18:37 40.63005 46.96295 34146 ft 427 kts 278°
2026-04-30 18:37 40.63786 46.88581 34139 ft 426 kts 278°
2026-04-30 18:38 40.64561 46.80889 34143 ft 426 kts 277°
2026-04-30 18:38 40.65350 46.73146 34141 ft 427 kts 278°
2026-04-30 18:39 40.66127 46.65440 34141 ft 428 kts 278°
2026-04-30 18:39 40.66878 46.57705 34133 ft 426 kts 277°
2026-04-30 18:40 40.67625 46.50011 34129 ft 426 kts 277°
2026-04-30 18:40 40.68372 46.42304 34132 ft 426 kts 277°
2026-04-30 18:41 40.69128 46.34589 34122 ft 426 kts 277°
2026-04-30 18:41 40.69881 46.26868 34130 ft 426 kts 277°
2026-04-30 18:42 40.70617 46.19200 34112 ft 415 kts 277°
2026-04-30 18:42 40.71307 46.11928 33857 ft 393 kts 277°
2026-04-30 18:42 40.71645 46.08337 33205 ft 396 kts 277°
2026-04-30 18:45 40.74963 45.72440 27817 ft 386 kts 276°
2026-04-30 18:45 40.75278 45.68962 27385 ft 384 kts 276°
2026-04-30 18:45 40.75593 45.65474 26970 ft 382 kts 276°
2026-04-30 18:46 40.75901 45.62040 26561 ft 380 kts 276°
2026-04-30 18:46 40.76200 45.58590 26153 ft 378 kts 275°
2026-04-30 18:46 40.76449 45.55148 25748 ft 376 kts 270°
2026-04-30 18:46 40.76262 45.51753 25363 ft 373 kts 259°
2026-04-30 18:47 40.75554 45.48481 24961 ft 373 kts 248°
2026-04-30 18:47 40.74441 45.45398 24537 ft 372 kts 244°
2026-04-30 18:47 40.73273 45.42404 24091 ft 369 kts 244°
2026-04-30 18:47 40.72080 45.39405 23686 ft 368 kts 243°
2026-04-30 18:48 40.70870 45.36447 23286 ft 365 kts 243°
2026-04-30 18:48 40.69672 45.33566 22889 ft 363 kts 242°
2026-04-30 18:48 40.68440 45.30639 22510 ft 362 kts 242°
2026-04-30 18:48 40.67222 45.27763 22128 ft 359 kts 242°
2026-04-30 18:49 40.66024 45.24948 21757 ft 358 kts 242°
2026-04-30 18:49 40.64807 45.22099 21380 ft 355 kts 242°
2026-04-30 18:49 40.63606 45.19291 21004 ft 353 kts 242°
2026-04-30 18:49 40.62397 45.16468 20637 ft 352 kts 242°
2026-04-30 18:50 40.61205 45.13690 20265 ft 350 kts 242°
2026-04-30 18:50 40.60004 45.10896 19899 ft 348 kts 242°
2026-04-30 18:50 40.58823 45.08147 19528 ft 347 kts 242°
2026-04-30 18:50 40.57650 45.05422 19179 ft 346 kts 242°
2026-04-30 18:51 40.56457 45.02654 18790 ft 345 kts 242°
2026-04-30 18:51 40.55288 44.99944 18596 ft 335 kts 242°
2026-04-30 18:51 40.54164 44.97341 18589 ft 320 kts 242°
2026-04-30 18:51 40.52967 44.94992 18568 ft 310 kts 232°
2026-04-30 18:52 40.51565 44.92836 18249 ft 314 kts 232°
2026-04-30 18:52 40.50139 44.90624 17881 ft 314 kts 231°
2026-04-30 18:52 40.48746 44.88479 17524 ft 312 kts 231°
2026-04-30 18:52 40.47340 44.86320 17155 ft 310 kts 231°
2026-04-30 18:53 40.45950 44.84192 16812 ft 307 kts 231°
2026-04-30 18:53 40.44568 44.82077 16445 ft 305 kts 231°
2026-04-30 18:53 40.43180 44.79958 16081 ft 304 kts 231°
2026-04-30 18:53 40.41810 44.77867 15721 ft 302 kts 231°
2026-04-30 18:54 40.40449 44.75792 15375 ft 299 kts 231°
2026-04-30 18:54 40.39104 44.73741 14961 ft 300 kts 231°
2026-04-30 18:54 40.37758 44.71693 14644 ft 297 kts 231°
2026-04-30 18:54 40.36407 44.69637 14183 ft 298 kts 231°
2026-04-30 18:55 40.35063 44.67582 13745 ft 296 kts 232°
2026-04-30 18:55 40.32538 44.63394 12776 ft 294 kts 233°
2026-04-30 18:55 40.31276 44.61301 12261 ft 292 kts 233°
2026-04-30 18:56 40.28782 44.57171 11136 ft 291 kts 232°
2026-04-30 18:56 40.27528 44.55096 10578 ft 290 kts 232°
2026-04-30 18:56 40.26291 44.53050 10051 ft 288 kts 232°
2026-04-30 18:57 40.23823 44.48975 8967 ft 286 kts 232°
2026-04-30 18:57 40.22592 44.46945 8441 ft 285 kts 232°
2026-04-30 18:57 40.21349 44.44895 7863 ft 286 kts 232°
2026-04-30 18:58 40.18921 44.40895 7146 ft 278 kts 232°
2026-04-30 18:58 40.17736 44.38945 7044 ft 268 kts 233°
2026-04-30 18:58 40.16601 44.37080 7062 ft 251 kts 233°
2026-04-30 18:59 40.14592 44.33682 6992 ft 224 kts 239°
2026-04-30 19:00 40.12188 44.28394 7027 ft 230 kts 240°
2026-04-30 19:00 40.11377 44.26609 7023 ft 229 kts 239°
2026-04-30 19:00 40.09753 44.23039 7077 ft 223 kts 240°
2026-04-30 19:01 40.08281 44.19804 6872 ft 199 kts 240°
2026-04-30 19:01 40.07562 44.18223 6730 ft 203 kts 240°
2026-04-30 19:02 40.06401 44.14879 6150 ft 200 kts 273°
2026-04-30 19:02 40.07949 44.12439 5767 ft 187 kts 356°
2026-04-30 19:03 40.10396 44.13621 5884 ft 200 kts 28°
2026-04-30 19:03 40.12756 44.15378 5481 ft 180 kts 31°
2026-04-30 19:04 40.14620 44.17252 5058 ft 165 kts 65°
2026-04-30 19:04 40.14685 44.20236 5234 ft 178 kts 90°
2026-04-30 19:05 40.14660 44.23460 4851 ft 173 kts 89°
2026-04-30 19:05 40.14664 44.26526 4429 ft 169 kts 87°
2026-04-30 19:06 40.14679 44.29599 4005 ft 169 kts 87°
2026-04-30 19:06 40.14687 44.31135 3787 ft 167 kts 87°
2026-04-30 19:06 40.14704 44.34144 3349 ft 165 kts 87°
2026-04-30 19:07 40.14719 44.37059 2921 ft 158 kts 88°
2026-04-30 19:07 40.14722 44.38465 2853 ft 144 kts 87°
2026-04-30 19:08 40.14727 44.39958 2853 ft 13 kts 87°
2026-04-30 19:08 40.14770 44.40029 2853 ft 3 kts 12°
2026-04-30 19:08 40.14793 44.40032 2853 ft 4 kts
2026-04-30 19:09 40.14914 44.40033 2853 ft 7 kts
2026-04-30 19:09 40.14956 44.40038 2853 ft 3 kts 21°
2026-04-30 19:09 40.14973 44.40060 2853 ft 2 kts 69°
2026-04-30 19:10 40.14976 44.40239 2853 ft 17 kts 90°
2026-04-30 19:10 40.14979 44.40655 2853 ft 25 kts 89°
2026-04-30 19:11 40.14980 44.40876 2853 ft 22 kts 89°
2026-04-30 19:11 40.14982 44.41219 2853 ft 15 kts 89°
2026-04-30 19:11 40.14983 44.41324 2853 ft 5 kts 89°
2026-04-30 19:12 40.14983 44.41378 2853 ft 6 kts 87°
2026-04-30 19:12 40.14999 44.41422 2853 ft 4 kts 39°
2026-04-30 19:12 40.15023 44.41434 2853 ft 4 kts 12°
2026-04-30 19:13 40.15075 44.41436 2853 ft 0 kts 358°